Nausori, Fiji

5:26 PM +12 on May 28, 2018 (GMT +1200)
Nausori International

Weather History for NFNA - February, 2013

Change the Weather History Date:

Wednesday, February 6, 2013

  Actual Average (WUND) Record (WUND)
Temperature  
Mean Temperature 80 °F -  
Max Temperature 87 °F 88 °F - (-1)
Min Temperature 73 °F 75 °F - (-1)
Cooling Degree Days 15    
Growing Degree Days 30 (Base 50)    
Moisture  
Dew Point 76 °F    
Average Humidity 86    
Maximum Humidity 100    
Minimum Humidity 62    
Precipitation  
Precipitation 0.31 in 0.40 in - ()
Sea Level Pressure  
Sea Level Pressure 29.67 in    
Wind  
Wind Speed 3 mph ()    
Max Wind Speed 12 mph    
Max Gust Speed -    
Visibility 13.6 miles    
Events Rain    
Averages and records for this station are not official NWS values.
T = Trace of Precipitation, MM = Missing Value Source: Averaged Metar Reports

Daily Weather History Graph

Daily Weather History Graph

Search for Another Location

Airport or City:

Astronomy

Feb. 06, 2013 Rise Set
Actual Time 5:55 AM +12 6:44 PM +12
Civil Twilight 5:32 AM +12 7:07 PM +12
Nautical Twilight 5:05 AM +12 7:33 PM +12
Astronomical Twilight 4:38 AM +12 8:01 PM +12
Moon 1:22 AM +12 (2/6) 2:49 PM +12 (2/6)
Length of Visible Light 13h 34m
Length of Day
12h 49m
Waning Crescent, 24% of the Moon is Illuminated
Feb 6
Waning Crescent
Feb 10
New
Feb 18
First Quarter
Feb 26
Full
Mar 5
Last Quarter

Hourly Weather History & Observations

Time (+12) Temp. Heat Index Dew Point Humidity Pressure Visibility Wind Dir Wind Speed Gust Speed Precip Events Conditions
12:00 AM 78 °F - 76 °F 91% 29.73 in 31 mi Calm Calm - -   Partly Cloudy
12:00 AM 77.0 °F - 75.2 °F 94% 29.71 in 31.1 mi Calm Calm - N/A   Partly Cloudy
1:00 AM 77.0 °F - 75.2 °F 94% 29.68 in 31.1 mi Calm Calm - N/A   Partly Cloudy
2:00 AM 77.0 °F - 75.2 °F 94% 29.68 in 31.1 mi Calm Calm - N/A   Partly Cloudy
3:00 AM 75 °F - 74 °F 97% 29.66 in 31 mi Calm Calm - -   Partly Cloudy
3:00 AM 75.2 °F - 75.2 °F 100% 29.65 in 31.1 mi Calm Calm - N/A   Partly Cloudy
4:00 AM 75.2 °F - 75.2 °F 100% 29.65 in 31.1 mi Calm Calm - N/A   Partly Cloudy
5:00 AM 73.4 °F - 73.4 °F 100% 29.65 in 31.1 mi Calm Calm - N/A   Partly Cloudy
6:00 AM 74 °F - 74 °F 98% 29.67 in 31 mi Calm Calm - -   Partly Cloudy
6:00 AM 73.4 °F - 73.4 °F 100% 29.65 in 31.1 mi Calm Calm - N/A   Partly Cloudy
7:00 AM 75.2 °F - 75.2 °F 100% 29.68 in 31.1 mi Calm Calm - N/A   Partly Cloudy
8:00 AM 80.6 °F 87.1 °F 77.0 °F 89% 29.68 in 31.1 mi Calm Calm - N/A   Partly Cloudy
9:00 AM 82 °F - 76 °F 78% 29.70 in 31 mi South 5.8 mph - -   Partly Cloudy
9:00 AM 84.2 °F 94.1 °F 77.0 °F 79% 29.68 in 31.1 mi SSW 8.1 mph - N/A   Mostly Cloudy
10:00 AM 84.2 °F 94.1 °F 77.0 °F 79% 29.68 in 31.1 mi SSW 8.1 mph - N/A   Mostly Cloudy
11:00 AM 84.2 °F 94.1 °F 77.0 °F 79% 29.68 in 31.1 mi South 9.2 mph - N/A   Mostly Cloudy
12:00 PM 87 °F - 77 °F 64% 29.68 in 31 mi South 9.2 mph - -   Partly Cloudy
12:00 PM 87.8 °F 99.7 °F 77.0 °F 70% 29.68 in 31.1 mi South 9.2 mph - N/A   Mostly Cloudy
1:00 PM 84.2 °F 92.3 °F 75.2 °F 74% 29.65 in 31.1 mi ESE 10.4 mph - N/A   Mostly Cloudy
2:00 PM 86.0 °F 95.1 °F 75.2 °F 70% 29.65 in 31.1 mi SSE 11.5 mph - N/A   Scattered Clouds
3:00 PM 86 °F - 75 °F 62% 29.64 in 31 mi South 6.9 mph - -   Partly Cloudy
3:00 PM 86.0 °F 95.1 °F 75.2 °F 70% 29.62 in 31.1 mi South 6.9 mph - N/A   Scattered Clouds
4:00 PM 86.0 °F 93.4 °F 73.4 °F 66% 29.62 in 31.1 mi ESE 6.9 mph - N/A   Scattered Clouds
5:00 PM 84.2 °F 92.3 °F 75.2 °F 74% 29.62 in 31.1 mi SSE 8.1 mph - N/A   Scattered Clouds
6:00 PM 82 °F - 77 °F 81% 29.66 in 31 mi SE 5.8 mph - -   Partly Cloudy
6:00 PM 82.4 °F 90.9 °F 77.0 °F 84% 29.65 in 31.1 mi SE 5.8 mph - N/A   Mostly Cloudy
7:00 PM 77.0 °F - 73.4 °F 89% 29.68 in 6.2 mi East 11.5 mph - N/A Rain Light Rain Showers
8:00 PM 78.8 °F - 77.0 °F 94% 29.71 in 12.4 mi Calm Calm - N/A   Scattered Clouds
9:00 PM 78.8 °F - 77.0 °F 94% 29.71 in 18.6 mi Calm Calm - N/A   Scattered Clouds
10:00 PM 77.0 °F - 75.2 °F 94% 29.74 in 18.6 mi Calm Calm - N/A   Mostly Cloudy
11:00 PM 77.0 °F - 75.2 °F 94% 29.74 in 12.4 mi West 8.1 mph - N/A Rain Light Rain Showers